Location: Unspecified
(43.4680°N, 87.1740°E)
Time: 21:06:40
(UTC+00:00)

Cosmos 2082 Rocket - Pass Details

Date: 17 April 2021
Orbit: 835 x 852 km, 71.0° (Epoch: 12 May)

Event Time Altitude Azimuth Distance (km) Brightness Sun altitude
Rises 22:21:31 0° 321° (NW) 3,393 5.2 -11.4°
Reaches altitude 10° 22:24:35 10° 305° (NW) 2,452 4.3 -10.9°
Maximum altitude 22:28:29 20° 260° (W) 1,852 3.4 -10.3°
Drops below altitude 10° 22:32:24 10° 215° (SW) 2,439 4.1 -9.6°
Sets 22:35:27 0° 199° (SSW) 3,368 4.9 -9.1°
